www.pogodaiklimat.ru

Погода и климат >> Архив погоды >> Россия >> Курганская область >> Целинное


ПОГОДА в Целинном

  • Прогноз погоды в Целинном
  • Монитор погоды в Целинном
  • Климат города

АРХИВ ПОГОДЫ в Целинном

Время (UTC), дата Ветер
(напр.,м/с)
 
Видим.   Явления Облачность Т
(С)
Тd
(С)
f
(%)
Тe
(С)
Тes
(С)
Комфортность P
(гПа)
Po
(гПа)
Тmin
(С)
Tmax
(С)
R
(мм)
R24
(мм)
S
(см)
03 14.10 СЗ 3 20 км {снег} 10/10 300 м
[Frnb]
-0.0 -1.5 90 -5 -5 1012.1 994.0 -0.4 0.8 1
06 14.10 СЗ 4 4000 м слабый снег 10/0 300 м
[As op]
+1.1 -1.1 85 -4 -4 1012.6 994.5
09 14.10 СЗ 3 50 км {снег} 8/8 600 м
[Cb cap]
+3.2 -2.2 68 -0 0 1012.6 994.7
12 14.10 З 2 20 км в посл. час ливневой снег 10/6 600 м
[Cb cap Ci]
-0.3 -1.8 90 -4 -4 1013.7 995.5
15 14.10 З 2 10 км {ливн. осадки} 5/5 600 м
[Sc]
-2.8 -4.1 91 -7 -7 1014.7 996.4 +3.4 2
18 14.10 СЗ 1 н/о н/о -1.4 -2.7 91 -4 -4 1015.2 996.9
21 14.10 СЗ 2 н/о н/о -0.7 -2.0 91 -5 -5 1015.3 997.1
00 15.10 СЗ 1 н/о н/о -0.7 -2.0 91 -3 -3 1015.5 997.3
03 15.10 СВ 2 20 км {снег} 9/9 300 м
[Frnb]
-0.7 -2.0 91 -5 -5 1016.7 998.4 -3.2 1 5
06 15.10 С 3 50 км {снег} 9/9 600 м
[Sc]
+0.7 -3.0 76 -4 -3 1018.1 999.9
09 15.10 С 4 50 км 9/9 600 м
[Cb cap]
+1.4 -3.7 69 -3 -3 1019.0 1000.8
12 15.10 С 2 20 км 10/10 600 м
[Sc]
+1.7 -4.8 62 -1 -1 1020.6 1002.4
15 15.10 С 3 10 км 10/10 600 м
[Sc]
+0.3 -3.6 75 -4 -4 1022.3 1004.0 +2.8
18 15.10 С 3 н/о н/о -0.3 -4.1 75 -5 -5 1022.9 1004.5
21 15.10 С 1 н/о н/о -0.9 -4.3 78 -3 -3 1023.5 1005.1
00 16.10 СЗ 1 н/о н/о -1.7 -4.2 83 -4 -4 1024.0 1005.5
03 16.10 СЗ 1 20 км 9/9 600 м
[Sc]
-2.0 -4.6 82 -4 -4 1024.9 1006.4 -2.1
06 16.10 ЮЗ 2 н/о н/о +1.3 -7.9 50 -1 -1 1025.1 1006.8
09 16.10 З 4 50 км 9/6 600 м
[Sc Ac trans Ci]
+3.3 -6.8 47 -1 0 1023.8 1005.7
12 16.10 ЮЗ 3 20 км 8/8 600 м
[Sc]
+2.3 -5.7 55 -1 -1 1023.1 1004.9
15 16.10 Ю 3 10 км 9/9 600 м
[Sc]
+1.6 -4.2 65 -2 -2 1021.9 1003.7 +3.5
18 16.10 ЮЗ 3 н/о н/о +2.0 -3.7 66 -2 -2 1019.8 1001.6
21 16.10 ЮЗ 4 н/о н/о +2.5 -3.1 67 -2 -2 1016.9 998.8
00 17.10 ЮЗ 3 н/о н/о +2.5 -1.4 75 -1 -1 1014.3 996.3
03 17.10 ЮЗ 2 20 км {ливн. осадки} 10/10 600 м
[Sc]
+2.5 +0.5 87 -1 -1 1012.3 994.3 +1.5 0.3
06 17.10 ЮЗ 3 50 км {ливн. осадки} 10/10 600 м
[Sc]
+6.0 +2.3 77 +3 +3 1008.9 991.2
09 17.10 ЮЗ 5 50 км 10/3 600 м
[Sc Ci]
+10.0 +3.7 65 +7 +8 1005.1 987.7
12 17.10 З 3
{10}
20 км 10/9 600 м
[Cb cap Ci]
+11.2 +4.6 64 +10 +10 1002.1 984.9
15 17.10 СЗ 5
{13}
10 км в посл. час ливневой дождь 10/10 600 м
[Cb cap]
+8.7 +5.0 78 +5 +5 1001.7 984.3 +11.8 0.4
18 17.10 СЗ 7-11
{20}
н/о н/о +4.4 -0.6 70 -1 -1 1003.6 985.9
21 17.10 СЗ 10-15
{20}
н/о н/о +4.4 -2.4 61 -2 -2 1004.8 987.1
00 18.10 СЗ 6
{15}
н/о н/о +2.1 -2.1 74 -4 -4 1006.7 988.8
03 18.10 СЗ 6
{13}
20 км 5/5 600 м
[Sc]
+2.6 -2.2 71 -3 -3 1007.5 989.6 +2.1 0.3
09 18.10 С 9-14
{16}
50 км 10/10 600 м
[Cb cap]
+4.3 -7.7 41 -1 -1 1009.4 991.6
15 18.10 СЗ 5
{14}
10 км 6/6 600 м
[Sc]
+1.7 -6.8 53 -3 -3 1012.9 994.8 +5.3
21 18.10 СЗ 6
{10}
н/о н/о -1.1 -5.8 70 -8 -8 1014.3 996.0
00 19.10 СЗ 4 н/о н/о -1.8 -5.1 78 -8 -8 1015.0 996.7
03 19.10 З 3 20 км 9/9 600 м
[Sc]
+0.7 -2.0 82 -4 -4 1014.3 996.1 -1.9
06 19.10 З 4 50 км 10/10 600 м
[Cb cap]
+3.4 -0.9 73 -1 -1 1013.1 995.2
09 19.10 ЮЗ 2 20 км слабый ливневой дождь 10/10 300 м
[Cb cap]
+4.1 +1.7 84 +1 +1 1011.7 993.9
15 19.10 З 3 10 км 10/10 600 м
[Sc]
+5.8 +3.4 85 +3 +3 1012.4 994.6 +6.0 0.4
18 19.10 З 2 н/о н/о +6.0 +3.9 86 +4 +4 1012.1 994.4
21 19.10 ЮЗ 2 н/о н/о +6.2 +3.7 84 +4 +4 1011.1 993.4
00 20.10 ЮЗ 4 н/о н/о +5.6 +2.8 82 +2 +2 1010.2 992.4
03 20.10 З 4 20 км 8/8 600 м
[Sc]
+6.1 +3.1 81 +2 +2 1009.6 991.9 +4.0
06 20.10 З 5 20 км в посл. час ливневой дождь 9/9 600 м
[Cb cap]
+9.4 +6.6 83 +6 +6 1008.5 991.0
09 20.10 З 5 10 км слабый ливневой дождь 10/10 300 м
[Cb cap]
+11.6 +7.8 77 +9 +9 1006.9 989.6
15 20.10 З 4
{10}
10 км 9/9 600 м
[Cb cap]
+8.8 +5.6 80 +6 +6 1007.8 990.3 +11.9 2
18 20.10 СЗ 5
{10}
н/о н/о +6.6 +3.0 78 +3 +3 1008.8 991.2
21 20.10 З 3 н/о н/о +4.1 +1.8 85 0 0 1009.3 991.5
00 21.10 З 3 н/о н/о +4.7 +1.9 82 +1 +1 1009.7 991.9

 

Местоположение метеостанции Целинное (Курганская область, Россия): широта 54.50 долгота 63.67 высота над уровнем моря 145 м.

В архиве по умолчанию представлена погода в Целинном за последнюю неделю. Архивные данные за месяц целиком и за предыдущие месяцы, начиная с января 2011 года, Вы можете получить, выбрав интересующий диапазон дат из раскрывающегося списка и нажав кнопку "Ввод!".


*Определитесь, кто Вы:
робот инопланетянин человек

Внимание! Время в таблицах - всемирное. Для получения местного времени необходимо прибавить поправку, которая в Целинном равна 5 ч.

Смотрите также архив погоды в соседних городах и на ближайших метеорологических станциях:

Погода в Октябрьском (Челябинская область, Россия) (63 км)
Погода в Куртамыше (Курганская область, Россия) (68 км)
Погода в Звериноголовском (Курганская область, Россия) (78 км)
Погода в Шумихе (Курганская область, Россия) (84 км)
Погода в Карабалыке (Костанайская область, Казахстан) (130 км)
Погода в Пресногорьковке (Костанайская область, Казахстан) (136 км)
Погода в Троицке (Челябинская область, Россия) (141 км)
Погода в Костанае (Костанайская область, Казахстан) (142 км)
Погода в Костанае 2 (Костанайская область, Казахстан) (145 км)
Погода в Южноуральске (Челябинская область, Россия) (150 км)

Пояснения к столбцам:

Ветер - указаны скорость ветра в м/с - средняя за 10 мин, порывы в срок и между сроками (в фигурных скобках) и направление, откуда дует ветер: С - северный, СВ - северо-восточный, В - восточный, ЮВ - юго-восточный, Ю - южный, ЮЗ - юго-западный, З - западный, СЗ - северо-западный.
Видимость - горизонтальная дальность видимости в метрах или километрах. При видимости от 1 до 10 км при отсутствии осадков обычно наблюдается дымка, при ухудшении видимости до 1 км и менее - туман. В сухую погоду видимость может ухудшаться дымом, пылью или мглою.
Явления - указаны атмосферные явления, наблюдавшиеся в срок или в последний час перед сроком; фигурными скобками обозначены явления, наблюдавшиеся между сроками (за 1-3 часа до срока); квадратными скобками обозначены град или гололедные отложения с указанием их диаметра в мм.
Облачность - указаны через наклонную черту общая и нижняя облачность в баллах и высота нижней границы облаков в метрах; квадратными скобками обозначены формы облаков: Ci - перистые, Cs - перисто-слоистые, Cc - перисто-кучевые, Ac - высококучевые, As - высокослоистые, Sc - слоисто-кучевые, Ns - слоисто-дождевые, Cu - кучевые, Cb - кучево-дождевые. Подробнее классификацию облаков см. в Атласе облаков (PDF).
T - Температура воздуха - температура, измеренная на высоте 2 м над землей.
Td - Температура точки росы - температура, при понижении до которой содержащийся в воздухе водяной пар достигнет насыщения.
f - Относительная влажность воздуха - влажноcть воздуха, измеренная на высоте 2 м над землей.
Te - Эффективная температура - температура, которую ощущает одетый по сезону человек в тени. Характеристика душности погоды. При расчете учитывается влияние влажности воздуха и скорости ветра на теплоощущения человека.
Tes - Эффективная температура на солнце - температура, которую ощущает человек, с поправкой на солнечный нагрев. Характеристика знойности погоды. Зависит от высоты солнца над горизонтом, облачности и скорости ветра. Ночью, в пасмурную погоду, а также при ветре 12 м/с и более поправка равна нулю.
P - Атмосферное давление - приведенное к уровню моря атмосферное давление.
Po - Атмосферное давление - измеренное на уровне метеостанции атмосферное давление.
Tmin - Минимальная температура - минимум температуры воздуха на высоте 2 м над землей.
Tmax - Максимальная температура - максимум температуры воздуха на высоте 2 м над землей.
R - Количество осадков - Количество выпавших осадков за период времени, мм. При наведении курсора мыши на число - период времени, за который выпало указанное количество осадков.
R24 - Количество осадков - Количество выпавших осадков за 24 часа, мм.
S - Снежный покров - Высота снежного покрова, см. При наведении курсора мыши на число - состояние снежного покрова и степень покрытия местности в баллах.